sat.trackr.live / text

‹ back to catalog

STARLINK-34699

NORAD 64921 · 2025-157T

PAYLOAD ACTIVE UNKNOWN

§ Identity

Operator
Country
US
Launch date
2025-07-26
Launch site
AFETR
Launch vehicle
Mass (kg)
RCS (m²)

Purposes: comms

External: N2YO · Heavens-Above · Gunter

§ Orbital elements

Epoch: 2026-09-20T05:00:03.653568Z

Period
93.85 min
Inclination
53.1570°
Eccentricity
0.0001414
Mean motion
15.34411646 rev/d
Perigee alt
461.7 km
Apogee alt
463.6 km
Semi-major
6,840.8 km
B*
6.3971e-4
RAAN
158.7330°
Arg perigee
87.0149°
Mean anomaly
273.1016°
Rev number
6,595

§ Raw data

STARLINK-346991 64921U 25157T   26263.20837562  .00021307  00000+0  63971-3 0  99952 64921  53.1570 158.7330 0001414  87.0149 273.1016 15.34411646 65951

JSON: /api/v1/satellites/64921 · /tle

For live sub-satellite position, see the globe view (requires WebGL).

§ Visibility from observer

Set your observer location to see the next 7 days of passes ≥ 10°. The values pass through the URL so the page stays shareable.

No JS? Fill the form by hand. The geolocation button needs JavaScript.